Location: Paris
(48.6709°N, 2.3750°E)
Time: 18:36:27
(UTC+02:00)

STARS - Pass Details

Date: 01 July 2022
Orbit: 620 x 637 km, 98.2° (Epoch: 06 August)

Event Time Altitude Azimuth Distance (km) Brightness Sun altitude
Rises 01:52:09 0° 2° (N) 2,937 ? -18.2°
Reaches altitude 10° 01:54:46 10° 347° (NNW) 2,021 ? -18.2°
Maximum altitude 01:58:03 21° 298° (WNW) 1,414 ? -18.2°
Drops below altitude 10° 02:01:20 10° 249° (WSW) 2,002 ? -18.2°
Enters shadow 02:01:30 - 248° (WSW) 2,056 ? -18.2°
